Satellite: RS-30
Catalog number: 32953
Epoch time:      11048.62131809
Element set:     479
Inclination:      082.4964 deg
RA of node:       237.0515 deg
Eccentricity:    0.0018244
Arg of perigee:   288.8403 deg
Mean anomaly:     071.0697 deg
Mean motion:   12.43010395 rev/day
Decay rate:        1.0e-07 rev/day^2
Epoch rev:           12423
Checksum:              279

Satellite: TACSAT-3
Catalog number: 35001
Epoch time:      11048.82534842
Element set:     506
Inclination:      040.4502 deg
RA of node:       175.4103 deg
Eccentricity:    0.0022862
Arg of perigee:   039.0339 deg
Mean anomaly:     321.2122 deg
Mean motion:   15.44889847 rev/day
Decay rate:     1.2268e-04 rev/day^2
Epoch rev:            9859
Checksum:              285

Satellite: PHARMSAT
Catalog number: 35002
Epoch time:      11047.75043680
Element set:     471
Inclination:      040.4683 deg
RA of node:       179.3813 deg
Eccentricity:    0.0024161
Arg of perigee:   036.2681 deg
Mean anomaly:     323.9772 deg
Mean motion:   15.45061835 rev/day
Decay rate:     1.0275e-04 rev/day^2
Epoch rev:            9845
Checksum:              284

Satellite: HAWKSAT1
Catalog number: 35003
Epoch time:      11047.68416744
Element set:    0516
Inclination:      040.4510 deg
RA of node:       163.7828 deg
Eccentricity:    0.0023435
Arg of perigee:   060.0958 deg
Mean anomaly:     300.2190 deg
Mean motion:   15.52179166 rev/day
Decay rate:     3.1748e-04 rev/day^2
Epoch rev:           09862
Checksum:              284

Satellite: CP6
Catalog number: 35004
Epoch time:      11048.66802771
Element set:     518
Inclination:      040.4532 deg
RA of node:       153.5236 deg
Eccentricity:    0.0022482
Arg of perigee:   075.0744 deg
Mean anomaly:     285.2554 deg
Mean motion:   15.54622349 rev/day
Decay rate:     3.7647e-04 rev/day^2
Epoch rev:            9881
Checksum:              303

Satellite: AEROCUB3
Catalog number: 35005
Epoch time:      11006.09222617
Element set:     610
Inclination:      040.4461 deg
RA of node:       021.7975 deg
Eccentricity:    0.0025578
Arg of perigee:   084.1677 deg
Mean anomaly:     280.7191 deg
Mean motion:   16.39196088 rev/day
Decay rate:  1.4049365e-01 rev/day^2
Epoch rev:            9254
Checksum:              305

Satellite: METEOR-M
Catalog number: 35865
Epoch time:      11048.73109671
Element set:     110
Inclination:      098.7220 deg
RA of node:       105.3234 deg
Eccentricity:    0.0003088
Arg of perigee:   032.7887 deg
Mean anomaly:     327.3463 deg
Mean motion:   14.21831995 rev/day
Decay rate:       1.76e-06 rev/day^2
Epoch rev:            7361
Checksum:              289

Satellite: RS-38
Catalog number: 35869
Epoch time:      11048.81583271
Element set:     122
Inclination:      098.7214 deg
RA of node:       105.4464 deg
Eccentricity:    0.0004878
Arg of perigee:   025.3490 deg
Mean anomaly:     334.7910 deg
Mean motion:   14.22000164 rev/day
Decay rate:       1.77e-06 rev/day^2
Epoch rev:            7363
Checksum:              292

/EX


_______________________________________________
Via the Keps mailing list courtesy of AMSAT-NA
http://amsat.org/mailman/listinfo/keps

--- ViaMAIL!/WC v1.60d
 * Origin: Chowdanet (401-724-4410) telnet://chowdanet.com  (1:323/120)